GFSGBSN_prec_precacc24_159.txt.gz
Total_Precipitation_Accumulation
0.09 0.07 0.06 0.05 0.03 0.02 0.01 0.02 0.03 0.04 0.03 0.02 0.02 0.01 0.00 0.00 0.00 0.00 0.00 0.00 0.00 0.00 0.00 0.00 0.00 0.00 0.00 0.00 0.00 0.00 0.00 0.00 0.00 0.00 0.00 0.00 0.00 0.00 0.00 0.00 0.00 0.00 0.00 0.00 0.00 0.00 0.00
0.05 0.08 0.06 0.05 0.03 0.02 0.02 0.02 0.02 0.03 0.04 0.04 0.04 0.04 0.02 0.02 0.01 0.00 0.00 0.00 0.00 0.00 0.00 0.00 0.00 0.00 0.00 0.00 0.00 0.00 0.00 0.00 0.00 0.00 0.00 0.00 0.00 0.00 0.00 0.00 0.00 0.00 0.00 0.00 0.00 0.00 0.00
0.00 0.01 0.02 0.03 0.08 0.09 0.08 0.05 0.03 0.02 0.01 0.02 0.02 0.02 0.03 0.02 0.02 0.01 0.00 0.00 0.00 0.00 0.00 0.00 0.00 0.00 0.00 0.00 0.00 0.00 0.00 0.00 0.00 0.00 0.00 0.00 0.00 0.00 0.00 0.00 0.00 0.00 0.00 0.00 0.00 0.00 0.00
0.00 0.00 0.01 0.03 0.04 0.08 0.08 0.07 0.07 0.06 0.05 0.04 0.03 0.03 0.04 0.04 0.02 0.01 0.01 0.00 0.00 0.00 0.00 0.00 0.00 0.00 0.00 0.00 0.00 0.00 0.00 0.00 0.00 0.00 0.00 0.00 0.00 0.00 0.00 0.00 0.00 0.00 0.00 0.00 0.00 0.00 0.00
0.00 0.01 0.01 0.00 0.01 0.03 0.03 0.04 0.05 0.06 0.09 0.13 0.11 0.08 0.08 0.11 0.10 0.08 0.05 0.02 0.00 0.00 0.00 0.00 0.00 0.00 0.00 0.00 0.00 0.00 0.00 0.00 0.00 0.00 0.00 0.00 0.00 0.00 0.00 0.00 0.00 0.00 0.00 0.00 0.00 0.00 0.00
0.00 0.00 0.01 0.00 0.00 0.01 0.02 0.02 0.03 0.06 0.05 0.04 0.05 0.06 0.06 0.12 0.20 0.19 0.12 0.05 0.00 0.00 0.00 0.00 0.00 0.00 0.00 0.00 0.00 0.00 0.00 0.00 0.00 0.00 0.00 0.00 0.00 0.00 0.00 0.00 0.00 0.00 0.00 0.00 0.00 0.00 0.00
0.01 0.01 0.01 0.01 0.01 0.00 0.00 0.02 0.03 0.01 0.03 0.07 0.07 0.05 0.04 0.07 0.17 0.21 0.11 0.04 0.01 0.00 0.00 0.00 0.00 0.00 0.00 0.00 0.00 0.00 0.00 0.00 0.00 0.00 0.00 0.00 0.00 0.00 0.00 0.00 0.00 0.00 0.00 0.00 0.00 0.00 0.00
0.02 0.02 0.02 0.01 0.01 0.00 0.00 0.00 0.02 0.03 0.02 0.02 0.06 0.10 0.09 0.17 0.29 0.23 0.08 0.02 0.01 0.00 0.00 0.00 0.00 0.00 0.00 0.00 0.00 0.00 0.00 0.00 0.00 0.00 0.00 0.00 0.00 0.00 0.00 0.00 0.00 0.00 0.00 0.00 0.00 0.00 0.00
0.02 0.02 0.01 0.02 0.03 0.02 0.01 0.01 0.01 0.02 0.02 0.02 0.06 0.12 0.20 0.35 0.30 0.15 0.03 0.02 0.03 0.02 0.02 0.00 0.00 0.00 0.00 0.00 0.00 0.00 0.00 0.00 0.00 0.00 0.00 0.00 0.00 0.00 0.00 0.00 0.00 0.00 0.00 0.00 0.00 0.00 0.00
0.03 0.03 0.02 0.01 0.02 0.03 0.04 0.04 0.03 0.02 0.04 0.03 0.03 0.08 0.24 0.44 0.34 0.15 0.10 0.03 0.05 0.11 0.30 0.06 0.00 0.00 0.00 0.00 0.00 0.00 0.00 0.00 0.00 0.00 0.00 0.00 0.00 0.00 0.00 0.00 0.00 0.00 0.00 0.00 0.00 0.00 0.00
0.05 0.04 0.03 0.02 0.02 0.02 0.02 0.02 0.03 0.02 0.03 0.04 0.06 0.13 0.16 0.10 0.07 0.05 0.06 0.08 0.12 0.25 0.78 0.10 0.00 0.00 0.00 0.00 0.00 0.00 0.00 0.00 0.00 0.00 0.00 0.00 0.00 0.00 0.00 0.00 0.00 0.00 0.00 0.00 0.00 0.00 0.00
0.05 0.06 0.06 0.05 0.03 0.02 0.01 0.02 0.01 0.02 0.01 0.04 0.08 0.15 0.14 0.20 0.15 0.07 0.03 0.09 0.32 0.78 0.70 0.06 0.00 0.00 0.00 0.00 0.00 0.00 0.00 0.00 0.00 0.00 0.00 0.00 0.00 0.00 0.00 0.00 0.00 0.00 0.00 0.00 0.00 0.00 0.00
0.07 0.07 0.07 0.07 0.06 0.05 0.03 0.03 0.02 0.02 0.02 0.03 0.09 0.16 0.11 0.04 0.10 0.15 0.17 0.32 0.77 0.80 0.23 0.04 0.00 0.00 0.00 0.00 0.00 0.00 0.00 0.00 0.00 0.00 0.00 0.00 0.00 0.00 0.00 0.00 0.00 0.00 0.00 0.00 0.00 0.00 0.00
0.08 0.06 0.06 0.06 0.05 0.06 0.05 0.05 0.04 0.04 0.04 0.05 0.10 0.15 0.11 0.07 0.10 0.18 0.40 0.82 1.05 0.33 0.05 0.01 0.00 0.00 0.00 0.00 0.00 0.00 0.00 0.00 0.00 0.00 0.00 0.00 0.00 0.00 0.00 0.00 0.00 0.00 0.00 0.00 0.00 0.00 0.00
0.10 0.08 0.06 0.05 0.05 0.05 0.06 0.05 0.05 0.05 0.08 0.13 0.24 0.23 0.16 0.12 0.12 0.19 0.59 1.06 0.56 0.19 0.03 0.01 0.01 0.01 0.00 0.00 0.00 0.00 0.00 0.00 0.00 0.00 0.00 0.00 0.00 0.00 0.00 0.00 0.00 0.00 0.00 0.00 0.00 0.00 0.00
0.17 0.14 0.10 0.08 0.06 0.05 0.07 0.09 0.09 0.09 0.12 0.24 0.22 0.25 0.14 0.11 0.28 0.39 0.85 0.74 0.22 0.03 0.01 0.03 0.05 0.02 0.00 0.00 0.00 0.00 0.01 0.00 0.00 0.00 0.01 0.00 0.00 0.00 0.00 0.00 0.00 0.00 0.00 0.00 0.01 0.02 0.00
0.19 0.21 0.21 0.17 0.09 0.07 0.05 0.07 0.11 0.15 0.24 0.37 0.33 0.34 0.14 0.19 0.62 1.16 0.96 0.35 0.08 0.01 0.00 0.04 0.06 0.06 0.01 0.00 0.00 0.00 0.00 0.00 0.00 0.00 0.02 0.03 0.03 0.00 0.00 0.00 0.00 0.00 0.00 0.00 0.00 0.00 0.00
0.24 0.22 0.21 0.21 0.15 0.09 0.06 0.06 0.09 0.14 0.38 0.51 0.34 0.36 0.18 0.30 0.84 1.05 0.66 0.13 0.03 0.01 0.01 0.02 0.03 0.03 0.02 0.01 0.01 0.01 0.00 0.00 0.00 0.00 0.01 0.03 0.07 0.03 0.00 0.00 0.00 0.00 0.00 0.00 0.00 0.00 0.01
0.11 0.21 0.27 0.30 0.27 0.15 0.09 0.08 0.09 0.16 0.39 0.33 0.63 0.47 0.58 0.45 0.51 0.48 0.16 0.04 0.02 0.03 0.02 0.02 0.01 0.01 0.02 0.03 0.11 0.04 0.02 0.00 0.00 0.00 0.01 0.02 0.12 0.13 0.03 0.01 0.00 0.00 0.00 0.00 0.01 0.03 0.02
0.20 0.21 0.17 0.16 0.18 0.23 0.22 0.16 0.19 0.22 0.32 0.39 0.71 1.12 1.41 1.48 0.43 0.09 0.08 0.10 0.05 0.02 0.02 0.03 0.04 0.04 0.05 0.05 0.10 0.06 0.03 0.02 0.01 0.01 0.01 0.03 0.02 0.02 0.01 0.00 0.00 0.00 0.00 0.01 0.05 0.10 0.03
0.23 0.30 0.29 0.31 0.32 0.22 0.31 0.43 0.36 0.31 0.41 0.65 0.92 0.71 0.59 0.95 0.62 0.21 0.05 0.05 0.06 0.05 0.03 0.03 0.04 0.02 0.03 0.04 0.03 0.02 0.02 0.02 0.02 0.02 0.02 0.04 0.08 0.04 0.02 0.01 0.01 0.01 0.00 0.01 0.03 0.02 0.02
0.25 0.26 0.33 0.43 0.75 0.77 0.67 0.52 0.63 0.58 0.63 0.90 0.73 0.34 0.10 0.18 0.13 0.19 0.28 0.16 0.05 0.03 0.03 0.03 0.02 0.01 0.02 0.03 0.01 0.00 0.03 0.04 0.04 0.03 0.05 0.09 0.11 0.07 0.07 0.02 0.03 0.04 0.01 0.00 0.01 0.00 0.00
0.25 0.24 0.34 0.50 0.83 1.09 1.31 0.98 0.86 0.81 1.13 1.23 0.46 0.10 0.17 0.15 0.24 0.32 0.23 0.13 0.05 0.03 0.03 0.01 0.01 0.05 0.05 0.01 0.02 0.07 0.14 0.12 0.12 0.10 0.09 0.13 0.16 0.17 0.18 0.03 0.18 0.35 0.02 0.00 0.00 0.00 0.01
0.26 0.24 0.40 0.62 0.76 1.08 1.11 1.03 0.85 0.71 0.79 0.80 0.31 0.12 0.27 0.29 0.12 0.23 0.19 0.15 0.10 0.06 0.08 0.03 0.02 0.06 0.02 0.05 0.12 0.17 0.10 0.06 0.05 0.03 0.05 0.06 0.12 0.23 0.21 0.11 0.33 0.10 0.00 0.00 0.00 0.00 0.00
0.36 0.34 0.44 0.52 0.72 1.10 1.16 0.96 0.71 0.57 0.56 0.62 0.26 0.21 0.16 0.20 0.10 0.08 0.11 0.16 0.18 0.14 0.14 0.12 0.04 0.05 0.12 0.19 0.28 0.30 0.24 0.14 0.04 0.01 0.00 0.01 0.04 0.19 0.21 0.20 0.07 0.01 0.00 0.00 0.00 0.00 0.00
0.39 0.38 0.44 0.59 0.77 0.87 0.94 0.94 0.64 0.49 0.50 0.72 0.39 0.12 0.18 0.29 0.18 0.05 0.05 0.06 0.13 0.17 0.22 0.13 0.09 0.10 0.18 0.24 0.29 0.22 0.14 0.06 0.03 0.01 0.00 0.00 0.03 0.12 0.16 0.15 0.06 0.00 0.00 0.00 0.00 0.00 0.00
0.26 0.24 0.31 0.49 0.71 0.72 0.73 1.00 0.77 0.58 0.50 0.63 0.64 0.21 0.27 0.48 0.17 0.04 0.08 0.08 0.05 0.08 0.15 0.13 0.14 0.22 0.29 0.31 0.36 0.17 0.04 0.02 0.01 0.01 0.03 0.05 0.07 0.11 0.07 0.05 0.01 0.00 0.00 0.00 0.00 0.00 0.00
0.28 0.20 0.31 0.54 0.55 0.55 0.66 0.89 0.83 0.74 0.66 0.83 0.80 0.30 0.29 0.51 0.23 0.06 0.03 0.05 0.09 0.07 0.06 0.07 0.13 0.21 0.47 0.52 0.34 0.28 0.09 0.01 0.01 0.00 0.01 0.05 0.09 0.08 0.09 0.12 0.03 0.00 0.00 0.00 0.00 0.00 0.00
0.19 0.29 0.35 0.36 0.34 0.37 0.56 0.68 0.84 0.69 0.64 0.84 1.14 0.50 0.19 0.43 0.36 0.13 0.09 0.06 0.03 0.04 0.08 0.05 0.04 0.03 0.09 0.24 0.19 0.11 0.14 0.13 0.06 0.03 0.02 0.03 0.03 0.02 0.04 0.02 0.00 0.00 0.01 0.00 0.00 0.00 0.00

GFSGBSN_prec_precacc24_162.txt.gz
Total_Precipitation_Accumulation
0.02 0.05 0.06 0.05 0.03 0.02 0.02 0.02 0.03 0.04 0.04 0.03 0.02 0.02 0.01 0.00 0.00 0.00 0.00 0.00 0.00 0.00 0.00 0.00 0.00 0.00 0.00 0.00 0.00 0.00 0.00 0.00 0.00 0.00 0.00 0.00 0.00 0.00 0.00 0.00 0.00 0.00 0.00 0.00 0.00 0.00 0.00
0.00 0.00 0.01 0.01 0.02 0.02 0.01 0.02 0.02 0.03 0.04 0.04 0.04 0.04 0.03 0.03 0.02 0.00 0.00 0.00 0.00 0.00 0.00 0.00 0.00 0.00 0.00 0.00 0.00 0.00 0.00 0.00 0.00 0.00 0.00 0.00 0.00 0.00 0.00 0.00 0.00 0.00 0.00 0.00 0.00 0.00 0.00
0.00 0.00 0.00 0.00 0.00 0.02 0.02 0.02 0.02 0.02 0.01 0.01 0.02 0.02 0.03 0.03 0.02 0.01 0.00 0.00 0.00 0.00 0.00 0.00 0.00 0.00 0.00 0.00 0.00 0.00 0.00 0.00 0.00 0.00 0.00 0.00 0.00 0.00 0.00 0.00 0.00 0.00 0.00 0.00 0.00 0.00 0.00
0.00 0.00 0.00 0.00 0.00 0.00 0.01 0.01 0.01 0.03 0.03 0.03 0.03 0.03 0.04 0.04 0.02 0.01 0.01 0.00 0.00 0.00 0.00 0.00 0.00 0.00 0.00 0.00 0.00 0.00 0.00 0.00 0.00 0.00 0.00 0.00 0.00 0.00 0.00 0.00 0.00 0.00 0.00 0.00 0.00 0.00 0.00
0.00 0.01 0.00 0.00 0.00 0.00 0.00 0.00 0.01 0.01 0.02 0.08 0.09 0.07 0.08 0.11 0.10 0.08 0.05 0.02 0.00 0.00 0.00 0.00 0.00 0.00 0.00 0.00 0.00 0.00 0.00 0.00 0.00 0.00 0.00 0.00 0.00 0.00 0.00 0.00 0.00 0.00 0.00 0.00 0.00 0.00 0.00
0.01 0.00 0.01 0.00 0.00 0.00 0.00 0.00 0.00 0.00 0.01 0.01 0.03 0.03 0.05 0.11 0.20 0.19 0.12 0.05 0.00 0.00 0.00 0.00 0.00 0.00 0.00 0.00 0.00 0.00 0.00 0.00 0.00 0.00 0.00 0.00 0.00 0.00 0.00 0.00 0.00 0.00 0.00 0.00 0.00 0.00 0.00
0.02 0.02 0.01 0.01 0.01 0.00 0.00 0.00 0.00 0.00 0.00 0.01 0.01 0.01 0.01 0.04 0.17 0.21 0.11 0.04 0.01 0.00 0.00 0.00 0.00 0.00 0.00 0.00 0.00 0.00 0.00 0.00 0.00 0.00 0.00 0.00 0.00 0.00 0.00 0.00 0.00 0.00 0.00 0.00 0.00 0.00 0.00
0.02 0.02 0.02 0.02 0.01 0.01 0.00 0.00 0.00 0.00 0.00 0.01 0.01 0.01 0.01 0.08 0.20 0.22 0.08 0.02 0.01 0.00 0.00 0.00 0.00 0.00 0.00 0.00 0.00 0.00 0.00 0.00 0.00 0.00 0.00 0.00 0.00 0.00 0.00 0.00 0.00 0.00 0.00 0.00 0.00 0.00 0.00
0.02 0.02 0.02 0.02 0.03 0.03 0.01 0.01 0.01 0.00 0.00 0.00 0.01 0.02 0.03 0.12 0.12 0.12 0.03 0.02 0.03 0.02 0.02 0.00 0.00 0.00 0.00 0.00 0.00 0.00 0.00 0.00 0.00 0.00 0.00 0.00 0.00 0.00 0.00 0.00 0.00 0.00 0.00 0.00 0.00 0.00 0.00
0.04 0.03 0.02 0.02 0.02 0.03 0.04 0.04 0.03 0.01 0.00 0.00 0.01 0.03 0.10 0.10 0.06 0.02 0.04 0.03 0.05 0.11 0.30 0.06 0.00 0.00 0.00 0.00 0.00 0.00 0.00 0.00 0.00 0.00 0.00 0.00 0.00 0.00 0.00 0.00 0.00 0.00 0.00 0.00 0.00 0.00 0.00
0.06 0.05 0.04 0.03 0.02 0.02 0.02 0.02 0.03 0.03 0.01 0.00 0.01 0.05 0.08 0.02 0.02 0.01 0.01 0.05 0.11 0.25 0.76 0.10 0.00 0.00 0.00 0.00 0.00 0.00 0.00 0.00 0.00 0.00 0.00 0.00 0.00 0.00 0.00 0.00 0.00 0.00 0.00 0.00 0.00 0.00 0.00
0.06 0.07 0.07 0.06 0.05 0.03 0.02 0.02 0.02 0.02 0.01 0.01 0.01 0.06 0.07 0.06 0.03 0.02 0.01 0.05 0.24 0.69 0.67 0.06 0.00 0.00 0.00 0.00 0.00 0.00 0.00 0.00 0.00 0.00 0.00 0.00 0.00 0.00 0.00 0.00 0.00 0.00 0.00 0.00 0.00 0.00 0.00
0.08 0.08 0.08 0.08 0.08 0.07 0.06 0.04 0.02 0.02 0.02 0.01 0.01 0.05 0.08 0.01 0.01 0.01 0.02 0.16 0.49 0.60 0.21 0.04 0.00 0.00 0.00 0.00 0.00 0.00 0.00 0.00 0.00 0.00 0.00 0.00 0.00 0.00 0.00 0.00 0.00 0.00 0.00 0.00 0.00 0.00 0.00
0.07 0.06 0.06 0.06 0.06 0.07 0.06 0.06 0.04 0.03 0.04 0.04 0.04 0.09 0.08 0.04 0.01 0.03 0.14 0.46 0.67 0.23 0.04 0.01 0.00 0.00 0.00 0.00 0.00 0.00 0.00 0.00 0.00 0.00 0.00 0.00 0.00 0.00 0.00 0.00 0.00 0.00 0.00 0.00 0.00 0.00 0.00
0.09 0.08 0.07 0.06 0.07 0.07 0.07 0.06 0.06 0.05 0.06 0.09 0.15 0.15 0.12 0.05 0.04 0.05 0.30 0.64 0.35 0.13 0.01 0.01 0.01 0.01 0.00 0.00 0.00 0.01 0.01 0.01 0.00 0.00 0.01 0.01 0.00 0.00 0.00 0.00 0.00 0.00 0.00 0.00 0.00 0.00 0.00
0.16 0.13 0.09 0.08 0.08 0.08 0.09 0.11 0.10 0.09 0.09 0.18 0.19 0.20 0.10 0.04 0.13 0.22 0.56 0.46 0.14 0.02 0.00 0.02 0.04 0.01 0.00 0.00 0.00 0.00 0.01 0.00 0.01 0.00 0.01 0.01 0.00 0.00 0.00 0.00 0.00 0.00 0.00 0.00 0.02 0.04 0.02
0.19 0.20 0.21 0.17 0.13 0.10 0.08 0.09 0.12 0.16 0.20 0.33 0.32 0.29 0.07 0.13 0.45 0.76 0.64 0.23 0.05 0.00 0.00 0.03 0.05 0.05 0.01 0.00 0.00 0.00 0.00 0.00 0.00 0.00 0.03 0.04 0.03 0.00 0.00 0.00 0.00 0.00 0.00 0.00 0.00 0.01 0.01
0.24 0.22 0.21 0.21 0.20 0.20 0.17 0.12 0.12 0.16 0.32 0.53 0.41 0.34 0.10 0.21 0.65 0.77 0.48 0.06 0.01 0.00 0.01 0.02 0.03 0.03 0.02 0.01 0.01 0.01 0.00 0.01 0.00 0.01 0.01 0.03 0.09 0.04 0.00 0.00 0.00 0.00 0.00 0.00 0.00 0.01 0.00
0.10 0.20 0.25 0.29 0.29 0.25 0.23 0.25 0.18 0.17 0.35 0.34 0.74 0.44 0.40 0.40 0.43 0.36 0.10 0.02 0.01 0.01 0.01 0.02 0.01 0.01 0.02 0.03 0.11 0.04 0.02 0.00 0.00 0.00 0.01 0.02 0.14 0.14 0.03 0.01 0.01 0.01 0.01 0.01 0.03 0.06 0.04
0.12 0.12 0.11 0.13 0.20 0.31 0.34 0.31 0.32 0.28 0.32 0.43 0.74 1.01 1.08 1.21 0.32 0.07 0.05 0.05 0.02 0.00 0.01 0.03 0.03 0.03 0.05 0.05 0.10 0.06 0.03 0.02 0.01 0.01 0.01 0.03 0.02 0.02 0.01 0.00 0.01 0.00 0.00 0.01 0.07 0.16 0.05
0.13 0.16 0.16 0.18 0.18 0.17 0.27 0.43 0.41 0.34 0.39 0.72 1.07 0.75 0.49 0.87 0.56 0.19 0.03 0.02 0.01 0.01 0.00 0.01 0.03 0.02 0.03 0.03 0.03 0.02 0.02 0.02 0.02 0.02 0.02 0.03 0.07 0.03 0.02 0.01 0.01 0.01 0.00 0.01 0.03 0.02 0.02
0.19 0.18 0.18 0.28 0.34 0.36 0.31 0.29 0.46 0.51 0.60 0.92 0.80 0.39 0.11 0.18 0.13 0.19 0.27 0.13 0.01 0.00 0.01 0.01 0.01 0.01 0.02 0.03 0.01 0.00 0.03 0.05 0.04 0.04 0.06 0.11 0.12 0.07 0.07 0.02 0.03 0.04 0.01 0.00 0.01 0.00 0.00
0.17 0.19 0.24 0.41 0.52 0.60 0.72 0.49 0.34 0.48 1.13 1.44 0.58 0.13 0.17 0.13 0.21 0.31 0.20 0.13 0.03 0.02 0.02 0.00 0.02 0.06 0.05 0.02 0.02 0.07 0.14 0.12 0.12 0.10 0.09 0.13 0.17 0.19 0.18 0.03 0.18 0.36 0.02 0.00 0.00 0.00 0.01
0.16 0.20 0.37 0.55 0.59 0.72 0.77 0.75 0.59 0.47 0.77 0.92 0.37 0.12 0.25 0.23 0.07 0.20 0.17 0.13 0.09 0.07 0.10 0.03 0.06 0.09 0.05 0.05 0.12 0.17 0.11 0.07 0.06 0.03 0.05 0.06 0.13 0.25 0.22 0.12 0.33 0.10 0.00 0.00 0.00 0.00 0.00
0.27 0.34 0.43 0.44 0.53 0.77 0.85 0.68 0.54 0.47 0.52 0.68 0.40 0.25 0.16 0.17 0.05 0.03 0.08 0.12 0.15 0.13 0.12 0.11 0.04 0.06 0.14 0.20 0.31 0.33 0.25 0.15 0.04 0.01 0.00 0.01 0.05 0.21 0.22 0.20 0.07 0.01 0.00 0.00 0.00 0.00 0.00
0.33 0.36 0.43 0.55 0.62 0.68 0.75 0.79 0.55 0.44 0.51 0.73 0.44 0.22 0.23 0.27 0.11 0.01 0.03 0.04 0.12 0.17 0.21 0.13 0.09 0.11 0.21 0.25 0.32 0.29 0.19 0.08 0.03 0.02 0.00 0.00 0.04 0.15 0.17 0.15 0.06 0.00 0.00 0.00 0.00 0.00 0.00
0.19 0.22 0.31 0.45 0.62 0.63 0.69 0.97 0.74 0.57 0.53 0.68 0.65 0.22 0.31 0.47 0.12 0.02 0.05 0.06 0.04 0.08 0.15 0.13 0.15 0.25 0.32 0.33 0.37 0.19 0.08 0.04 0.02 0.01 0.05 0.07 0.10 0.13 0.09 0.07 0.01 0.00 0.00 0.00 0.01 0.00 0.00
0.20 0.16 0.31 0.50 0.51 0.52 0.64 0.89 0.85 0.74 0.67 0.87 0.82 0.31 0.30 0.51 0.22 0.06 0.03 0.05 0.09 0.07 0.06 0.07 0.14 0.21 0.48 0.55 0.36 0.29 0.10 0.02 0.02 0.00 0.01 0.07 0.14 0.14 0.12 0.15 0.04 0.00 0.00 0.00 0.00 0.00 0.00
0.14 0.26 0.33 0.33 0.31 0.32 0.53 0.69 0.85 0.70 0.66 0.88 1.18 0.51 0.23 0.47 0.39 0.14 0.09 0.06 0.03 0.04 0.08 0.07 0.05 0.04 0.11 0.26 0.20 0.12 0.16 0.18 0.10 0.05 0.03 0.04 0.04 0.05 0.11 0.07 0.02 0.00 0.02 0.02 0.01 0.00 0.00

GFSGBSN_prec_precacc24_168.txt.gz
Total_Precipitation_Accumulation
0.00 0.00 0.00 0.00 0.00 0.01 0.02 0.02 0.03 0.04 0.04 0.03 0.02 0.02 0.01 0.00 0.00 0.00 0.00 0.00 0.00 0.00 0.00 0.00 0.00 0.00 0.00 0.00 0.00 0.00 0.00 0.00 0.00 0.00 0.00 0.00 0.00 0.00 0.00 0.00 0.00 0.00 0.00 0.00 0.00 0.00 0.00
0.00 0.00 0.00 0.00 0.00 0.00 0.00 0.01 0.01 0.02 0.03 0.02 0.03 0.03 0.03 0.03 0.02 0.00 0.00 0.00 0.00 0.00 0.00 0.00 0.00 0.00 0.00 0.00 0.00 0.00 0.00 0.00 0.00 0.00 0.00 0.00 0.00 0.00 0.00 0.00 0.00 0.00 0.00 0.00 0.00 0.00 0.00
0.00 0.00 0.00 0.00 0.00 0.00 0.00 0.00 0.00 0.00 0.01 0.01 0.01 0.02 0.02 0.02 0.02 0.01 0.00 0.00 0.00 0.00 0.00 0.00 0.00 0.00 0.00 0.00 0.00 0.00 0.00 0.00 0.00 0.00 0.00 0.00 0.00 0.00 0.00 0.00 0.00 0.00 0.00 0.00 0.00 0.00 0.00
0.00 0.00 0.00 0.00 0.00 0.00 0.00 0.00 0.00 0.00 0.00 0.00 0.00 0.01 0.01 0.02 0.01 0.01 0.00 0.00 0.00 0.00 0.00 0.00 0.00 0.00 0.00 0.00 0.00 0.00 0.00 0.00 0.00 0.00 0.00 0.00 0.00 0.00 0.00 0.00 0.00 0.00 0.00 0.00 0.00 0.00 0.00
0.00 0.00 0.00 0.00 0.00 0.00 0.00 0.00 0.00 0.00 0.00 0.00 0.00 0.00 0.00 0.01 0.03 0.02 0.01 0.01 0.00 0.00 0.00 0.00 0.00 0.00 0.00 0.00 0.00 0.00 0.00 0.00 0.00 0.00 0.00 0.00 0.00 0.00 0.00 0.00 0.00 0.00 0.00 0.00 0.00 0.00 0.00
0.01 0.00 0.01 0.00 0.00 0.00 0.00 0.00 0.00 0.00 0.00 0.00 0.00 0.00 0.00 0.01 0.03 0.05 0.05 0.02 0.00 0.00 0.00 0.00 0.00 0.00 0.00 0.00 0.00 0.00 0.00 0.00 0.00 0.00 0.00 0.00 0.00 0.00 0.00 0.00 0.00 0.00 0.00 0.00 0.00 0.00 0.00
0.03 0.02 0.02 0.01 0.01 0.00 0.00 0.00 0.00 0.00 0.00 0.00 0.00 0.00 0.00 0.00 0.02 0.06 0.06 0.02 0.00 0.00 0.00 0.00 0.00 0.00 0.00 0.00 0.00 0.00 0.00 0.00 0.00 0.00 0.00 0.00 0.00 0.00 0.00 0.00 0.00 0.00 0.00 0.00 0.00 0.00 0.00
0.03 0.03 0.03 0.02 0.02 0.01 0.00 0.00 0.00 0.00 0.00 0.00 0.00 0.00 0.00 0.00 0.02 0.06 0.04 0.01 0.01 0.00 0.00 0.00 0.00 0.00 0.00 0.00 0.00 0.00 0.00 0.00 0.00 0.00 0.00 0.00 0.00 0.00 0.00 0.00 0.00 0.00 0.00 0.00 0.00 0.00 0.00
0.02 0.02 0.02 0.03 0.03 0.03 0.02 0.01 0.01 0.00 0.00 0.00 0.00 0.00 0.00 0.01 0.03 0.03 0.00 0.00 0.01 0.01 0.01 0.00 0.00 0.00 0.00 0.00 0.00 0.00 0.00 0.00 0.00 0.00 0.00 0.00 0.00 0.00 0.00 0.00 0.00 0.00 0.00 0.00 0.00 0.00 0.00
0.05 0.04 0.03 0.02 0.03 0.04 0.04 0.04 0.04 0.01 0.00 0.00 0.00 0.01 0.01 0.00 0.01 0.00 0.00 0.00 0.01 0.06 0.08 0.00 0.00 0.00 0.00 0.00 0.00 0.00 0.00 0.00 0.00 0.00 0.00 0.00 0.00 0.00 0.00 0.00 0.00 0.00 0.00 0.00 0.00 0.00 0.00
0.06 0.05 0.04 0.04 0.03 0.03 0.02 0.02 0.03 0.03 0.01 0.00 0.00 0.01 0.00 0.00 0.00 0.00 0.00 0.00 0.00 0.04 0.18 0.02 0.00 0.00 0.00 0.00 0.00 0.00 0.00 0.00 0.00 0.00 0.00 0.00 0.00 0.00 0.00 0.00 0.00 0.00 0.00 0.00 0.00 0.00 0.00
0.06 0.06 0.07 0.06 0.05 0.04 0.03 0.03 0.02 0.02 0.02 0.01 0.00 0.02 0.03 0.01 0.00 0.00 0.00 0.00 0.01 0.03 0.05 0.00 0.00 0.00 0.00 0.00 0.00 0.00 0.00 0.00 0.00 0.00 0.00 0.00 0.00 0.00 0.00 0.00 0.00 0.00 0.00 0.00 0.00 0.00 0.00
0.09 0.09 0.09 0.08 0.08 0.08 0.07 0.05 0.03 0.03 0.03 0.02 0.01 0.02 0.05 0.00 0.00 0.00 0.00 0.07 0.13 0.08 0.01 0.00 0.00 0.00 0.00 0.00 0.00 0.00 0.00 0.00 0.00 0.00 0.00 0.00 0.00 0.00 0.00 0.00 0.00 0.00 0.00 0.00 0.00 0.00 0.00
0.08 0.07 0.07 0.06 0.07 0.07 0.07 0.07 0.05 0.03 0.03 0.04 0.04 0.04 0.05 0.02 0.00 0.00 0.07 0.20 0.16 0.03 0.00 0.00 0.00 0.00 0.00 0.00 0.00 0.00 0.00 0.00 0.00 0.00 0.00 0.00 0.00 0.00 0.00 0.00 0.00 0.00 0.00 0.00 0.00 0.00 0.00
0.08 0.08 0.07 0.06 0.06 0.08 0.09 0.07 0.06 0.05 0.05 0.08 0.13 0.11 0.10 0.04 0.02 0.02 0.17 0.26 0.08 0.00 0.00 0.00 0.00 0.00 0.00 0.00 0.00 0.01 0.01 0.01 0.01 0.04 0.07 0.02 0.00 0.00 0.00 0.00 0.00 0.00 0.00 0.00 0.01 0.01 0.00
0.16 0.12 0.08 0.08 0.08 0.08 0.10 0.11 0.10 0.09 0.09 0.16 0.16 0.18 0.04 0.05 0.15 0.17 0.34 0.15 0.01 0.00 0.00 0.01 0.02 0.00 0.00 0.00 0.00 0.00 0.01 0.00 0.02 0.01 0.05 0.06 0.02 0.00 0.00 0.00 0.00 0.00 0.00 0.02 0.11 0.09 0.05
0.19 0.20 0.20 0.17 0.13 0.09 0.10 0.11 0.13 0.14 0.19 0.27 0.30 0.27 0.03 0.10 0.43 0.55 0.34 0.08 0.00 0.00 0.00 0.01 0.03 0.04 0.01 0.00 0.00 0.00 0.00 0.00 0.00 0.02 0.03 0.06 0.07 0.01 0.00 0.01 0.00 0.00 0.00 0.01 0.04 0.05 0.03
0.27 0.23 0.22 0.21 0.20 0.20 0.18 0.13 0.14 0.16 0.27 0.44 0.43 0.35 0.09 0.24 0.48 0.45 0.33 0.02 0.00 0.00 0.00 0.01 0.02 0.02 0.01 0.00 0.00 0.00 0.00 0.01 0.01 0.01 0.01 0.04 0.12 0.06 0.01 0.00 0.00 0.00 0.00 0.00 0.07 0.03 0.02
0.11 0.20 0.26 0.29 0.29 0.25 0.23 0.25 0.20 0.20 0.37 0.31 0.85 0.60 0.33 0.56 0.43 0.29 0.08 0.00 0.00 0.00 0.00 0.01 0.01 0.01 0.01 0.01 0.07 0.02 0.02 0.01 0.00 0.00 0.02 0.03 0.15 0.15 0.04 0.01 0.02 0.01 0.02 0.03 0.07 0.11 0.10
0.12 0.11 0.10 0.11 0.18 0.29 0.32 0.30 0.33 0.42 0.57 0.50 0.75 0.94 0.82 0.93 0.37 0.09 0.05 0.03 0.01 0.00 0.00 0.01 0.03 0.03 0.04 0.04 0.08 0.04 0.02 0.03 0.02 0.01 0.01 0.03 0.02 0.02 0.02 0.00 0.03 0.07 0.06 0.04 0.16 0.37 0.16
0.11 0.13 0.14 0.13 0.12 0.13 0.24 0.40 0.43 0.47 0.76 1.18 1.33 0.80 0.39 0.72 0.48 0.20 0.06 0.05 0.03 0.02 0.01 0.01 0.02 0.01 0.02 0.02 0.02 0.02 0.02 0.02 0.02 0.02 0.02 0.03 0.07 0.03 0.02 0.01 0.01 0.01 0.01 0.01 0.07 0.09 0.14
0.14 0.14 0.14 0.15 0.15 0.16 0.20 0.25 0.43 0.65 0.93 1.37 1.27 0.57 0.19 0.21 0.15 0.22 0.30 0.16 0.03 0.01 0.04 0.05 0.04 0.01 0.03 0.02 0.01 0.00 0.03 0.05 0.05 0.05 0.06 0.11 0.13 0.08 0.07 0.02 0.03 0.04 0.01 0.00 0.01 0.00 0.00
0.10 0.13 0.14 0.13 0.12 0.14 0.20 0.25 0.29 0.49 1.60 1.91 0.97 0.38 0.34 0.26 0.25 0.37 0.22 0.14 0.05 0.03 0.04 0.03 0.09 0.12 0.07 0.06 0.06 0.08 0.14 0.12 0.12 0.09 0.09 0.15 0.20 0.22 0.19 0.04 0.20 0.39 0.02 0.00 0.00 0.00 0.01
0.10 0.11 0.14 0.14 0.15 0.15 0.16 0.25 0.29 0.34 1.09 1.28 0.46 0.28 0.50 0.43 0.17 0.24 0.19 0.16 0.10 0.09 0.13 0.07 0.08 0.13 0.14 0.07 0.12 0.17 0.11 0.07 0.06 0.03 0.05 0.07 0.15 0.27 0.23 0.13 0.38 0.11 0.00 0.00 0.00 0.00 0.00
0.20 0.23 0.22 0.19 0.16 0.21 0.23 0.22 0.31 0.37 0.66 0.91 0.72 0.51 0.46 0.37 0.15 0.08 0.12 0.16 0.16 0.13 0.14 0.15 0.06 0.09 0.16 0.20 0.31 0.34 0.24 0.16 0.04 0.01 0.00 0.01 0.06 0.23 0.25 0.21 0.08 0.01 0.00 0.00 0.00 0.00 0.00
0.27 0.28 0.31 0.29 0.21 0.16 0.12 0.13 0.18 0.36 0.74 0.82 0.60 0.51 0.49 0.46 0.23 0.10 0.12 0.08 0.12 0.16 0.19 0.13 0.08 0.11 0.22 0.27 0.40 0.33 0.19 0.11 0.07 0.04 0.01 0.00 0.04 0.20 0.21 0.19 0.07 0.00 0.00 0.00 0.01 0.01 0.00
0.17 0.16 0.16 0.16 0.19 0.21 0.20 0.18 0.19 0.22 0.70 0.95 0.70 0.30 0.41 0.53 0.10 0.02 0.06 0.08 0.07 0.11 0.14 0.14 0.15 0.26 0.33 0.34 0.39 0.19 0.08 0.04 0.05 0.05 0.09 0.13 0.13 0.16 0.12 0.11 0.02 0.00 0.00 0.00 0.08 0.02 0.01
0.15 0.10 0.13 0.18 0.20 0.23 0.29 0.39 0.44 0.46 0.47 0.95 0.86 0.30 0.28 0.45 0.12 0.01 0.02 0.04 0.09 0.12 0.14 0.10 0.20 0.23 0.51 0.56 0.36 0.30 0.12 0.02 0.03 0.00 0.02 0.13 0.33 0.33 0.23 0.21 0.08 0.00 0.00 0.01 0.00 0.00 0.00
0.11 0.12 0.10 0.11 0.15 0.16 0.29 0.44 0.62 0.51 0.46 0.79 1.11 0.45 0.23 0.45 0.29 0.05 0.03 0.02 0.01 0.04 0.10 0.10 0.16 0.07 0.13 0.29 0.21 0.13 0.19 0.21 0.13 0.07 0.04 0.04 0.04 0.09 0.27 0.22 0.04 0.02 0.04 0.05 0.03 0.03 0.08

GFSGBSN_prec_precacc24_171.txt.gz
Total_Precipitation_Accumulation
0.00 0.00 0.00 0.00 0.00 0.00 0.01 0.02 0.03 0.04 0.04 0.03 0.02 0.02 0.01 0.00 0.00 0.00 0.00 0.00 0.00 0.00 0.00 0.00 0.00 0.00 0.00 0.00 0.00 0.00 0.00 0.00 0.00 0.00 0.00 0.00 0.00 0.00 0.00 0.00 0.00 0.00 0.00 0.00 0.00 0.00 0.00
0.00 0.00 0.00 0.00 0.00 0.00 0.00 0.00 0.01 0.02 0.02 0.02 0.03 0.03 0.03 0.02 0.01 0.00 0.00 0.00 0.00 0.00 0.00 0.00 0.00 0.00 0.00 0.00 0.00 0.00 0.00 0.00 0.00 0.00 0.00 0.00 0.00 0.00 0.00 0.00 0.00 0.00 0.00 0.00 0.00 0.00 0.00
0.00 0.00 0.00 0.00 0.00 0.00 0.00 0.00 0.00 0.00 0.00 0.00 0.01 0.02 0.02 0.02 0.01 0.01 0.00 0.00 0.00 0.00 0.00 0.00 0.00 0.00 0.00 0.00 0.00 0.00 0.00 0.00 0.00 0.00 0.00 0.00 0.00 0.00 0.00 0.00 0.00 0.00 0.00 0.00 0.00 0.00 0.00
0.00 0.00 0.00 0.00 0.00 0.00 0.00 0.00 0.00 0.00 0.00 0.00 0.00 0.00 0.01 0.01 0.01 0.01 0.00 0.00 0.00 0.00 0.00 0.00 0.00 0.00 0.00 0.00 0.00 0.00 0.00 0.00 0.00 0.00 0.00 0.00 0.00 0.00 0.00 0.00 0.00 0.00 0.00 0.00 0.00 0.00 0.00
0.00 0.00 0.00 0.00 0.00 0.00 0.00 0.00 0.00 0.00 0.00 0.00 0.00 0.00 0.00 0.00 0.01 0.01 0.00 0.00 0.00 0.00 0.00 0.00 0.00 0.00 0.00 0.00 0.00 0.00 0.00 0.00 0.00 0.00 0.00 0.00 0.00 0.00 0.00 0.00 0.00 0.00 0.00 0.00 0.00 0.00 0.00
0.01 0.00 0.01 0.00 0.00 0.00 0.00 0.00 0.00 0.00 0.00 0.00 0.00 0.00 0.00 0.00 0.00 0.01 0.02 0.01 0.00 0.00 0.00 0.00 0.00 0.00 0.00 0.00 0.00 0.00 0.00 0.00 0.00 0.00 0.00 0.00 0.00 0.00 0.00 0.00 0.00 0.00 0.00 0.00 0.00 0.00 0.00
0.03 0.02 0.02 0.01 0.01 0.00 0.00 0.00 0.00 0.00 0.00 0.00 0.00 0.00 0.00 0.00 0.00 0.01 0.02 0.01 0.00 0.00 0.00 0.00 0.00 0.00 0.00 0.00 0.00 0.00 0.00 0.00 0.00 0.00 0.00 0.00 0.00 0.00 0.00 0.00 0.00 0.00 0.00 0.00 0.00 0.00 0.00
0.02 0.03 0.03 0.03 0.02 0.01 0.00 0.00 0.00 0.00 0.00 0.00 0.00 0.00 0.00 0.00 0.00 0.02 0.01 0.00 0.00 0.00 0.00 0.00 0.00 0.00 0.00 0.00 0.00 0.00 0.00 0.00 0.00 0.00 0.00 0.00 0.00 0.00 0.00 0.00 0.00 0.00 0.00 0.00 0.00 0.00 0.00
0.02 0.01 0.02 0.03 0.04 0.03 0.02 0.01 0.01 0.00 0.00 0.00 0.00 0.00 0.00 0.00 0.01 0.01 0.00 0.00 0.00 0.00 0.00 0.00 0.00 0.00 0.00 0.00 0.00 0.00 0.00 0.00 0.00 0.00 0.00 0.00 0.00 0.00 0.00 0.00 0.00 0.00 0.00 0.00 0.00 0.00 0.00
0.05 0.04 0.03 0.03 0.03 0.04 0.04 0.05 0.04 0.01 0.00 0.00 0.00 0.00 0.00 0.00 0.00 0.00 0.00 0.00 0.00 0.00 0.01 0.00 0.00 0.00 0.00 0.00 0.00 0.00 0.00 0.00 0.00 0.00 0.00 0.00 0.00 0.00 0.00 0.00 0.00 0.00 0.00 0.00 0.00 0.00 0.00
0.06 0.06 0.04 0.03 0.03 0.03 0.02 0.02 0.03 0.04 0.01 0.00 0.00 0.00 0.00 0.00 0.00 0.00 0.00 0.00 0.00 0.00 0.00 0.00 0.00 0.00 0.00 0.00 0.00 0.00 0.00 0.00 0.00 0.00 0.00 0.00 0.00 0.00 0.00 0.00 0.00 0.00 0.00 0.00 0.00 0.00 0.00
0.06 0.06 0.07 0.06 0.05 0.03 0.02 0.02 0.02 0.02 0.02 0.01 0.00 0.00 0.03 0.00 0.00 0.00 0.00 0.00 0.01 0.01 0.00 0.00 0.00 0.00 0.00 0.00 0.00 0.00 0.00 0.00 0.00 0.00 0.00 0.00 0.00 0.00 0.00 0.00 0.00 0.00 0.00 0.00 0.00 0.00 0.00
0.09 0.08 0.09 0.08 0.08 0.07 0.07 0.04 0.02 0.02 0.02 0.02 0.01 0.00 0.04 0.00 0.00 0.00 0.00 0.04 0.07 0.04 0.00 0.00 0.00 0.00 0.00 0.00 0.00 0.00 0.00 0.00 0.00 0.00 0.00 0.00 0.00 0.00 0.00 0.00 0.00 0.00 0.00 0.00 0.00 0.00 0.00
0.09 0.07 0.07 0.07 0.07 0.07 0.07 0.07 0.05 0.02 0.03 0.04 0.04 0.03 0.03 0.01 0.00 0.00 0.04 0.13 0.07 0.02 0.00 0.00 0.00 0.00 0.00 0.00 0.00 0.00 0.00 0.00 0.00 0.00 0.00 0.00 0.00 0.00 0.00 0.00 0.00 0.00 0.00 0.00 0.00 0.00 0.00
0.09 0.08 0.07 0.07 0.07 0.08 0.09 0.07 0.06 0.05 0.05 0.08 0.12 0.10 0.08 0.03 0.01 0.02 0.13 0.19 0.03 0.00 0.00 0.00 0.00 0.00 0.00 0.00 0.00 0.01 0.01 0.01 0.02 0.07 0.12 0.04 0.01 0.00 0.00 0.00 0.00 0.00 0.00 0.00 0.01 0.01 0.00
0.16 0.13 0.09 0.08 0.08 0.08 0.09 0.10 0.09 0.09 0.09 0.15 0.15 0.18 0.05 0.05 0.17 0.22 0.27 0.10 0.00 0.00 0.00 0.00 0.00 0.00 0.00 0.00 0.00 0.00 0.01 0.00 0.02 0.01 0.06 0.10 0.07 0.00 0.00 0.00 0.00 0.00 0.00 0.02 0.12 0.11 0.06
0.20 0.21 0.22 0.18 0.14 0.10 0.10 0.10 0.12 0.13 0.18 0.26 0.31 0.26 0.02 0.10 0.49 0.55 0.33 0.04 0.00 0.00 0.00 0.00 0.00 0.01 0.00 0.00 0.00 0.00 0.00 0.00 0.00 0.03 0.04 0.07 0.08 0.01 0.01 0.03 0.00 0.01 0.00 0.03 0.10 0.17 0.11
0.27 0.23 0.22 0.22 0.21 0.21 0.17 0.12 0.13 0.16 0.28 0.46 0.46 0.53 0.11 0.29 0.48 0.38 0.27 0.02 0.00 0.00 0.00 0.00 0.00 0.00 0.00 0.00 0.00 0.00 0.00 0.01 0.01 0.01 0.01 0.04 0.11 0.06 0.01 0.00 0.00 0.02 0.03 0.07 0.28 0.20 0.10
0.10 0.20 0.25 0.29 0.29 0.25 0.22 0.25 0.20 0.20 0.36 0.36 0.81 0.55 0.30 0.61 0.41 0.22 0.06 0.00 0.00 0.00 0.00 0.00 0.00 0.00 0.00 0.01 0.07 0.02 0.02 0.01 0.01 0.00 0.02 0.03 0.15 0.14 0.03 0.02 0.02 0.03 0.09 0.06 0.11 0.21 0.19
0.11 0.11 0.10 0.12 0.18 0.28 0.32 0.28 0.32 0.40 0.55 0.49 0.80 0.85 0.65 0.95 0.52 0.17 0.07 0.03 0.01 0.00 0.00 0.00 0.00 0.01 0.02 0.02 0.06 0.04 0.02 0.03 0.02 0.01 0.01 0.03 0.02 0.02 0.01 0.00 0.03 0.08 0.07 0.05 0.17 0.38 0.18
0.10 0.13 0.14 0.14 0.11 0.12 0.22 0.38 0.41 0.45 0.74 1.12 1.36 0.78 0.25 0.57 0.54 0.29 0.14 0.07 0.04 0.02 0.01 0.00 0.02 0.00 0.01 0.02 0.01 0.01 0.02 0.02 0.03 0.02 0.02 0.02 0.06 0.02 0.01 0.01 0.01 0.01 0.01 0.01 0.07 0.09 0.14
0.12 0.13 0.13 0.15 0.14 0.15 0.17 0.21 0.40 0.62 0.88 1.25 1.24 0.67 0.27 0.15 0.15 0.24 0.33 0.20 0.04 0.02 0.04 0.06 0.05 0.01 0.01 0.02 0.01 0.01 0.03 0.06 0.06 0.08 0.08 0.11 0.12 0.06 0.04 0.01 0.02 0.04 0.01 0.00 0.01 0.00 0.00
0.10 0.14 0.14 0.13 0.10 0.12 0.17 0.23 0.25 0.46 1.53 1.78 0.90 0.38 0.44 0.36 0.22 0.44 0.24 0.14 0.05 0.05 0.05 0.05 0.12 0.13 0.06 0.06 0.06 0.07 0.12 0.10 0.11 0.10 0.10 0.16 0.20 0.19 0.17 0.02 0.18 0.39 0.02 0.00 0.00 0.00 0.01
0.10 0.11 0.14 0.13 0.14 0.11 0.13 0.23 0.26 0.31 1.05 1.22 0.43 0.29 0.52 0.43 0.24 0.23 0.22 0.17 0.11 0.10 0.16 0.08 0.11 0.14 0.14 0.04 0.06 0.09 0.09 0.07 0.06 0.04 0.05 0.07 0.14 0.27 0.23 0.13 0.38 0.11 0.00 0.00 0.00 0.00 0.00
0.15 0.18 0.18 0.15 0.11 0.13 0.14 0.16 0.28 0.33 0.59 0.82 0.69 0.51 0.50 0.44 0.19 0.16 0.22 0.32 0.25 0.15 0.16 0.19 0.13 0.09 0.11 0.16 0.24 0.19 0.10 0.11 0.04 0.01 0.00 0.01 0.07 0.23 0.25 0.21 0.08 0.01 0.00 0.00 0.00 0.00 0.00
0.12 0.12 0.16 0.18 0.16 0.15 0.10 0.10 0.15 0.34 0.71 0.65 0.48 0.54 0.63 0.59 0.29 0.22 0.28 0.16 0.27 0.22 0.22 0.16 0.09 0.07 0.17 0.25 0.39 0.32 0.16 0.10 0.07 0.04 0.01 0.00 0.04 0.20 0.21 0.19 0.06 0.00 0.00 0.00 0.02 0.03 0.00
0.08 0.10 0.13 0.16 0.19 0.21 0.19 0.15 0.12 0.15 0.62 0.80 0.45 0.30 0.52 0.67 0.14 0.07 0.17 0.23 0.23 0.26 0.19 0.15 0.17 0.21 0.26 0.32 0.39 0.18 0.08 0.04 0.06 0.05 0.10 0.15 0.16 0.17 0.12 0.11 0.02 0.00 0.00 0.00 0.11 0.07 0.01
0.08 0.08 0.12 0.16 0.19 0.22 0.24 0.26 0.24 0.20 0.30 0.74 0.63 0.38 0.44 0.52 0.12 0.02 0.06 0.10 0.12 0.19 0.26 0.16 0.21 0.19 0.35 0.39 0.34 0.29 0.12 0.02 0.03 0.00 0.02 0.14 0.38 0.42 0.33 0.28 0.10 0.00 0.01 0.02 0.01 0.01 0.02
0.09 0.09 0.08 0.10 0.12 0.15 0.21 0.28 0.31 0.25 0.26 0.48 0.78 0.45 0.42 0.59 0.30 0.03 0.00 0.00 0.00 0.04 0.11 0.23 0.27 0.08 0.10 0.25 0.20 0.13 0.19 0.21 0.13 0.08 0.04 0.04 0.04 0.10 0.29 0.28 0.06 0.02 0.05 0.06 0.08 0.17 0.21

GFSGBSN_prec_precacc24_174.txt.gz
Total_Precipitation_Accumulation
0.02 0.01 0.00 0.00 0.00 0.00 0.00 0.01 0.02 0.03 0.03 0.03 0.02 0.02 0.01 0.00 0.00 0.00 0.00 0.00 0.00 0.00 0.00 0.00 0.00 0.00 0.00 0.00 0.00 0.00 0.00 0.00 0.00 0.00 0.00 0.00 0.00 0.00 0.00 0.00 0.00 0.00 0.00 0.00 0.00 0.00 0.00
0.01 0.00 0.00 0.00 0.00 0.00 0.00 0.00 0.00 0.00 0.01 0.02 0.03 0.03 0.03 0.02 0.01 0.00 0.00 0.00 0.00 0.00 0.00 0.00 0.00 0.00 0.00 0.00 0.00 0.00 0.00 0.00 0.00 0.00 0.00 0.00 0.00 0.00 0.00 0.00 0.00 0.00 0.00 0.00 0.00 0.00 0.00
0.02 0.01 0.00 0.00 0.00 0.00 0.00 0.00 0.00 0.00 0.00 0.00 0.00 0.01 0.02 0.02 0.01 0.01 0.00 0.00 0.00 0.00 0.00 0.00 0.00 0.00 0.00 0.00 0.00 0.00 0.00 0.00 0.00 0.00 0.00 0.00 0.00 0.00 0.00 0.00 0.00 0.00 0.00 0.00 0.00 0.00 0.00
0.02 0.01 0.00 0.00 0.00 0.00 0.00 0.00 0.00 0.00 0.00 0.00 0.00 0.00 0.00 0.01 0.01 0.00 0.00 0.00 0.00 0.00 0.00 0.00 0.00 0.00 0.00 0.00 0.00 0.00 0.00 0.00 0.00 0.00 0.00 0.00 0.00 0.00 0.00 0.00 0.00 0.00 0.00 0.00 0.00 0.00 0.00
0.01 0.01 0.00 0.00 0.00 0.00 0.00 0.00 0.00 0.00 0.00 0.00 0.00 0.00 0.00 0.00 0.00 0.00 0.00 0.00 0.00 0.00 0.00 0.00 0.00 0.00 0.00 0.00 0.00 0.00 0.00 0.00 0.00 0.00 0.00 0.00 0.00 0.00 0.00 0.00 0.00 0.00 0.00 0.00 0.00 0.00 0.00
0.01 0.01 0.01 0.00 0.00 0.00 0.00 0.00 0.00 0.00 0.00 0.00 0.00 0.00 0.00 0.00 0.00 0.00 0.00 0.00 0.00 0.00 0.00 0.00 0.00 0.00 0.00 0.00 0.00 0.00 0.00 0.00 0.00 0.00 0.00 0.00 0.00 0.00 0.00 0.00 0.00 0.00 0.00 0.00 0.00 0.00 0.00
0.03 0.02 0.02 0.01 0.01 0.00 0.00 0.00 0.00 0.00 0.00 0.00 0.00 0.00 0.00 0.00 0.00 0.00 0.00 0.00 0.00 0.00 0.00 0.00 0.00 0.00 0.00 0.00 0.00 0.00 0.00 0.00 0.00 0.00 0.00 0.00 0.00 0.00 0.00 0.00 0.00 0.00 0.00 0.00 0.00 0.00 0.00
0.02 0.03 0.03 0.03 0.02 0.01 0.00 0.00 0.00 0.00 0.00 0.00 0.00 0.00 0.00 0.00 0.00 0.01 0.01 0.00 0.00 0.00 0.00 0.00 0.00 0.00 0.00 0.00 0.00 0.00 0.00 0.00 0.00 0.00 0.00 0.00 0.00 0.00 0.00 0.00 0.00 0.00 0.00 0.00 0.00 0.00 0.00
0.02 0.02 0.02 0.03 0.04 0.03 0.02 0.01 0.01 0.00 0.00 0.00 0.00 0.00 0.00 0.00 0.00 0.00 0.00 0.00 0.00 0.00 0.00 0.00 0.00 0.00 0.00 0.00 0.00 0.00 0.00 0.00 0.00 0.00 0.00 0.00 0.00 0.00 0.00 0.00 0.00 0.00 0.00 0.00 0.00 0.00 0.00
0.06 0.04 0.03 0.03 0.03 0.04 0.05 0.05 0.04 0.02 0.00 0.00 0.00 0.00 0.00 0.00 0.00 0.00 0.00 0.00 0.00 0.00 0.00 0.00 0.00 0.00 0.00 0.00 0.00 0.00 0.00 0.00 0.00 0.00 0.00 0.00 0.00 0.00 0.00 0.00 0.00 0.00 0.00 0.00 0.00 0.00 0.00
0.05 0.05 0.04 0.04 0.03 0.02 0.02 0.02 0.03 0.04 0.01 0.00 0.00 0.00 0.00 0.00 0.00 0.00 0.00 0.00 0.00 0.00 0.00 0.00 0.00 0.00 0.00 0.00 0.00 0.00 0.00 0.00 0.00 0.00 0.00 0.00 0.00 0.00 0.00 0.00 0.00 0.00 0.00 0.00 0.00 0.00 0.00
0.05 0.05 0.06 0.06 0.05 0.03 0.02 0.02 0.01 0.02 0.02 0.01 0.00 0.00 0.02 0.00 0.00 0.00 0.00 0.00 0.00 0.00 0.00 0.00 0.00 0.00 0.00 0.00 0.00 0.00 0.00 0.00 0.00 0.00 0.00 0.00 0.00 0.00 0.00 0.00 0.00 0.00 0.00 0.00 0.00 0.00 0.00
0.09 0.08 0.07 0.07 0.07 0.07 0.06 0.04 0.02 0.02 0.02 0.02 0.01 0.00 0.02 0.00 0.00 0.00 0.00 0.03 0.03 0.01 0.00 0.00 0.00 0.00 0.00 0.00 0.00 0.00 0.00 0.00 0.00 0.00 0.00 0.00 0.00 0.00 0.00 0.00 0.00 0.00 0.00 0.00 0.00 0.00 0.00
0.10 0.09 0.08 0.07 0.07 0.07 0.07 0.07 0.04 0.02 0.03 0.04 0.04 0.03 0.02 0.01 0.00 0.00 0.04 0.11 0.03 0.01 0.00 0.00 0.00 0.00 0.00 0.00 0.00 0.00 0.00 0.00 0.00 0.00 0.00 0.00 0.00 0.00 0.00 0.00 0.00 0.00 0.00 0.00 0.00 0.00 0.00
0.09 0.09 0.08 0.08 0.08 0.08 0.09 0.07 0.06 0.05 0.05 0.08 0.10 0.10 0.07 0.02 0.01 0.01 0.12 0.14 0.01 0.00 0.00 0.00 0.00 0.00 0.00 0.00 0.00 0.00 0.01 0.01 0.02 0.07 0.16 0.07 0.01 0.00 0.00 0.00 0.00 0.00 0.00 0.00 0.01 0.01 0.00
0.16 0.13 0.10 0.09 0.08 0.07 0.08 0.09 0.09 0.09 0.10 0.15 0.15 0.17 0.05 0.04 0.15 0.22 0.25 0.06 0.00 0.00 0.00 0.00 0.00 0.00 0.00 0.00 0.00 0.00 0.01 0.00 0.02 0.01 0.06 0.11 0.07 0.00 0.00 0.00 0.00 0.00 0.00 0.02 0.12 0.12 0.06
0.17 0.20 0.21 0.19 0.14 0.10 0.09 0.09 0.11 0.12 0.18 0.28 0.31 0.27 0.02 0.09 0.48 0.58 0.34 0.02 0.00 0.00 0.00 0.00 0.00 0.00 0.00 0.00 0.00 0.00 0.00 0.00 0.01 0.03 0.05 0.08 0.08 0.01 0.01 0.03 0.00 0.02 0.01 0.03 0.11 0.18 0.11
0.25 0.21 0.21 0.22 0.22 0.23 0.19 0.12 0.12 0.15 0.25 0.47 0.47 0.49 0.11 0.28 0.45 0.47 0.29 0.02 0.00 0.00 0.00 0.00 0.00 0.00 0.00 0.00 0.00 0.00 0.00 0.01 0.01 0.01 0.01 0.04 0.11 0.06 0.01 0.00 0.00 0.04 0.08 0.20 0.48 0.43 0.29
0.11 0.20 0.25 0.29 0.30 0.26 0.25 0.27 0.20 0.18 0.32 0.36 0.85 0.50 0.24 0.62 0.57 0.24 0.05 0.01 0.00 0.00 0.00 0.00 0.00 0.00 0.00 0.00 0.03 0.01 0.01 0.01 0.01 0.00 0.02 0.03 0.15 0.14 0.03 0.02 0.02 0.05 0.15 0.16 0.25 0.37 0.31
0.11 0.10 0.09 0.11 0.18 0.29 0.33 0.30 0.32 0.39 0.53 0.45 0.75 0.85 0.54 0.78 0.53 0.24 0.20 0.11 0.02 0.00 0.00 0.00 0.00 0.00 0.00 0.00 0.02 0.01 0.01 0.02 0.01 0.01 0.01 0.03 0.02 0.02 0.01 0.00 0.03 0.09 0.09 0.05 0.16 0.37 0.19
0.09 0.12 0.13 0.13 0.12 0.12 0.22 0.38 0.40 0.45 0.72 1.01 1.20 0.75 0.25 0.46 0.48 0.30 0.21 0.20 0.11 0.03 0.01 0.01 0.02 0.00 0.01 0.02 0.01 0.01 0.01 0.01 0.02 0.02 0.02 0.02 0.05 0.02 0.01 0.00 0.00 0.00 0.01 0.02 0.08 0.10 0.15
0.12 0.12 0.13 0.15 0.14 0.16 0.18 0.20 0.38 0.61 0.84 1.12 1.12 0.62 0.26 0.09 0.05 0.24 0.39 0.29 0.13 0.08 0.09 0.07 0.07 0.02 0.02 0.02 0.02 0.02 0.02 0.04 0.06 0.08 0.08 0.12 0.12 0.05 0.02 0.00 0.00 0.02 0.01 0.00 0.01 0.00 0.00
0.11 0.14 0.14 0.13 0.11 0.12 0.17 0.21 0.23 0.43 1.44 1.68 0.83 0.36 0.42 0.35 0.16 0.29 0.21 0.16 0.07 0.07 0.06 0.06 0.13 0.16 0.07 0.06 0.06 0.03 0.06 0.06 0.07 0.08 0.11 0.18 0.26 0.24 0.18 0.02 0.13 0.29 0.02 0.00 0.00 0.00 0.00
0.13 0.13 0.15 0.14 0.14 0.12 0.13 0.21 0.23 0.28 0.96 1.14 0.40 0.27 0.48 0.40 0.24 0.16 0.08 0.13 0.11 0.11 0.17 0.09 0.13 0.16 0.15 0.06 0.05 0.05 0.06 0.04 0.04 0.03 0.06 0.07 0.15 0.32 0.30 0.14 0.32 0.08 0.00 0.00 0.00 0.00 0.00
0.14 0.17 0.18 0.14 0.10 0.13 0.12 0.15 0.26 0.30 0.55 0.75 0.66 0.47 0.48 0.43 0.20 0.16 0.19 0.24 0.23 0.15 0.16 0.20 0.15 0.12 0.13 0.14 0.24 0.18 0.05 0.04 0.01 0.00 0.00 0.01 0.06 0.21 0.28 0.22 0.08 0.01 0.00 0.00 0.00 0.00 0.00
0.11 0.10 0.13 0.14 0.13 0.13 0.10 0.09 0.14 0.33 0.71 0.63 0.45 0.51 0.60 0.58 0.29 0.24 0.30 0.17 0.30 0.35 0.27 0.26 0.16 0.13 0.20 0.24 0.33 0.28 0.14 0.07 0.05 0.03 0.01 0.00 0.02 0.15 0.18 0.20 0.06 0.00 0.00 0.00 0.03 0.03 0.00
0.05 0.07 0.09 0.11 0.15 0.16 0.15 0.13 0.10 0.14 0.61 0.77 0.43 0.28 0.47 0.67 0.15 0.10 0.23 0.28 0.30 0.34 0.35 0.36 0.31 0.30 0.29 0.30 0.32 0.16 0.07 0.04 0.06 0.04 0.09 0.15 0.15 0.15 0.12 0.11 0.02 0.00 0.00 0.01 0.11 0.07 0.01
0.02 0.03 0.06 0.13 0.16 0.20 0.23 0.24 0.20 0.12 0.18 0.54 0.47 0.34 0.44 0.56 0.13 0.03 0.08 0.17 0.25 0.31 0.44 0.40 0.37 0.33 0.34 0.27 0.25 0.26 0.12 0.02 0.03 0.00 0.02 0.14 0.38 0.42 0.37 0.37 0.13 0.00 0.01 0.03 0.02 0.01 0.02
0.03 0.05 0.06 0.08 0.10 0.12 0.19 0.26 0.29 0.21 0.19 0.28 0.32 0.22 0.46 0.79 0.34 0.04 0.01 0.03 0.12 0.10 0.11 0.44 0.40 0.13 0.11 0.20 0.14 0.11 0.19 0.21 0.13 0.08 0.04 0.04 0.04 0.10 0.30 0.29 0.06 0.02 0.05 0.06 0.09 0.17 0.21